Douglas Bisbee, AZ

5:46 AM MST on November 19, 2017 (GMT -0700)
Bisbee Douglas International

Weather History for KDUG - March, 2013

Change the Weather History Date:

Monday, March 4, 2013

  Actual Average Record
Temperature  
Mean Temperature 61 °F 53 °F  
Max Temperature 75 °F 70 °F 85 °F (2016)
Min Temperature 46 °F 35 °F 13 °F (1951)
Degree Days  
Heating Degree Days 4 12  
Month to date heating degree days 45 51  
Since 1 July heating degree days 2249 2087  
Cooling Degree Days 0 0  
Month to date cooling degree days 0 0  
Year to date cooling degree days 0 0  
Growing Degree Days 10 (Base 50)    
Moisture  
Dew Point 19 °F    
Average Humidity 23    
Maximum Humidity 39    
Minimum Humidity 7    
Precipitation  
Precipitation 0.00 in 0.02 in 0.26 in (1958)
Month to date precipitation 0.00 0.08  
Year to date precipitation 0.84 1.47  
Snow  
Snow 0.00 in - - ()
Month to date snowfall 0.0  
Snow Depth 0.00 in    
Sea Level Pressure  
Sea Level Pressure 29.87 in    
Wind  
Wind Speed 13 mph (West)    
Max Wind Speed 29 mph    
Max Gust Speed 43 mph    
Visibility 10 miles    
Events      
T = Trace of Precipitation, MM = Missing Value Source: NWS Daily Summary

Daily Weather History Graph

Daily Weather History Graph

Search for Another Location

Airport or City:

Trip Planner

Search our weather history database for the weather conditions in past years. The results will help you decide how hot, cold, wet, or windy it might be!

Date:

Astronomy

Mar. 04, 2013 Rise Set
Actual Time 6:41 AM MST 6:18 PM MST
Civil Twilight 6:17 AM MST 6:43 PM MST
Nautical Twilight 5:49 AM MST 7:11 PM MST
Astronomical Twilight 5:20 AM MST 7:39 PM MST
Moon 12:39 AM MST (3/4) 11:19 AM MST (3/4)
Length of Visible Light 12h 26m
Length of Day
11h 37m
Waning Gibbous, 51% of the Moon is Illuminated
Mar 4
Waning Gibbous
Mar 4
Last Quarter
Mar 11
New
Mar 19
First Quarter
Mar 27
Full

Hourly Weather History & Observations

Time (MST) Temp. Windchill Dew Point Humidity Pressure Visibility Wind Dir Wind Speed Gust Speed Precip Events Conditions
12:56 AM 48.9 °F - 17.1 °F 28% 29.87 in 10.0 mi East 6.9 mph - N/A   Scattered Clouds
1:56 AM 57.2 °F - 10.4 °F 16% 30.01 in 10.0 mi Calm Calm - N/A   Partly Cloudy
2:56 AM 55.9 °F - 12.0 °F 18% 29.83 in 10.0 mi Calm Calm - N/A   Overcast
3:56 AM 62.1 °F - 9.0 °F 12% 29.81 in 10.0 mi SW 9.2 mph - N/A   Overcast
4:56 AM 60.8 °F - 8.6 °F 13% 29.99 in 10.0 mi South 8.1 mph - N/A   Overcast
5:56 AM 57.9 °F - 8.1 °F 14% 29.84 in 10.0 mi South 8.1 mph - N/A   Mostly Cloudy
6:56 AM 57.9 °F - 5.0 °F 12% 29.85 in 10.0 mi SSW 13.8 mph - N/A   Scattered Clouds
7:56 AM 64.0 °F - 3.0 °F 9% 29.85 in 10.0 mi SSW 10.4 mph - N/A   Partly Cloudy
8:56 AM 66.0 °F - -0.0 °F 7% 29.86 in 10.0 mi SW 11.5 mph - N/A   Mostly Cloudy
9:56 AM 70.0 °F - 21.9 °F 16% 29.83 in 10.0 mi SW 16.1 mph 26.5 mph N/A   Clear
10:56 AM 71.1 °F - 25.0 °F 18% 29.83 in 10.0 mi West 17.3 mph 23.0 mph N/A   Clear
11:56 AM 73.9 °F - 28.9 °F 19% 29.80 in 10.0 mi West 19.6 mph 34.5 mph N/A   Clear
12:56 PM 73.9 °F - 26.1 °F 17% 29.80 in 10.0 mi West 19.6 mph 29.9 mph N/A   Clear
1:56 PM 73.9 °F - 27.0 °F 18% 29.77 in 10.0 mi West 27.6 mph 35.7 mph N/A   Clear
2:56 PM 72.0 °F - 28.9 °F 20% 29.79 in 10.0 mi West 25.3 mph 31.1 mph N/A   Clear
3:56 PM 72.0 °F - 26.1 °F 18% 29.78 in 10.0 mi WSW 28.8 mph 33.4 mph N/A   Clear
4:56 PM 70.0 °F - 21.9 °F 16% 29.81 in 10.0 mi WSW 19.6 mph 27.6 mph N/A   Clear
5:56 PM 64.9 °F - 26.1 °F 23% 29.86 in 10.0 mi NNW 20.7 mph 29.9 mph N/A   Clear
6:56 PM 60.1 °F - 26.1 °F 27% 29.92 in 10.0 mi NNW 15.0 mph - N/A   Clear
7:56 PM 55.0 °F - 26.1 °F 33% 29.93 in 10.0 mi NW 11.5 mph - N/A   Clear
8:56 PM 48.9 °F - 24.1 °F 38% 29.99 in 10.0 mi NNW 9.2 mph - N/A   Clear
9:56 PM 48.0 °F - 24.1 °F 39% 29.99 in 10.0 mi NNW 12.7 mph - N/A   Clear
10:56 PM 46.0 °F 43.1 °F 23.0 °F 40% 30.01 in 10.0 mi NNW 5.8 mph - N/A   Clear